Location: Newark
(39.0622°N, 106.5590°E)
Time: 12:37:17
(UTC+00:00)

UWE-3 - Pass Details

Date: 28 February 2020
Orbit: 585 x 683 km, 97.6° (Epoch: 05 April)

Event Time Altitude Azimuth Distance (km) Brightness Sun altitude
Rises 22:21:32 0° 11° (NNE) 3,052 ? -13.6°
Reaches altitude 10° 22:23:47 10° 12° (NNE) 2,134 ? -13.2°
Maximum altitude 22:28:29 90° 60° (ENE) 687 ? -12.3°
Drops below altitude 10° 22:33:07 10° 193° (SSW) 2,102 ? -11.4°
Sets 22:35:19 0° 194° (SSW) 3,003 ? -11.0°
